Regional Weather Roundup
Issued by NWS

Home | Current Version | Previous Version | Graphics & Text | Print | Product List | Glossary On
Versions: 1 2 3 4 5 6 7 8 9 10 11 12 13 14 15 16 17 18 19 20 21 22 23 24 25 26 27 28 29 30 31 32 33 34 35 36 37 38 39 40 41 42 43 44 45 46 47 48 49 50
000
ASUS43 KLOT 022100
RWRIL

ILLINOIS REGIONAL WEATHER ROUNDUP
NATIONAL WEATHER SERVICE CHICAGO/ROMEOVILLE IL
400 PM CDT THU JUL 02 2015

NOTE: "FAIR" INDICATES FEW OR NO CLOUDS BELOW 12,000 FEET WITH NO
SIGNIFICANT WEATHER AND/OR OBSTRUCTIONS TO VISIBILITY.

* THESE STATIONS ARE NOT UNDER NWS QUALITY CONTROL. THEY ALSO MAY NOT
  REPORT WEATHER SUCH AS PRECIPITATION OR FOG.

ILZ001-002-007-009-015-016-024-022200-
NORTHWEST ILLINOIS

CITY           SKY/WX    TMP DP  RH WIND       PRES   REMARKS
MOLINE         PTSUNNY   71  56  58 E12       29.96F
STERLING*      MOSUNNY   72  57  60 NE13      29.97F
$$

ILZ003-004-008-010-011-017-018-022200-
NORTH CENTRAL ILLINOIS

CITY           SKY/WX    TMP DP  RH WIND       PRES   REMARKS
ROCKFORD       CLOUDY    73  51  46 E9        30.00F
$$

ILZ005-006-012>014-019>023-022200-
NORTHEAST ILLINOIS

CITY           SKY/WX    TMP DP  RH WIND       PRES   REMARKS
CHICAGO-OHARE  PTSUNNY   66  53  63 NE13      29.99S
CHICAGO-MIDWAY PTSUNNY   69  55  60 NE12      29.98S
AURORA         PTSUNNY   71  53  52 E9        29.98S
WAUKEGAN       SUNNY     62  52  69 NE13      30.00F
DUPAGE AIRPORT PTSUNNY   69  53  56 NE12      29.98S
WHEELING       MOSUNNY   64  51  62 NE9       30.01F
NORTHERLY ISL    N/A     62  55  77 N17         N/A
$$

LMZ740>746-022200-
SOUTHERN LAKE MICHIGAN

STATION/POSITION SKY/WX   TEMP    WIND        PRES    VSBY  WAVE
                          AIR SEA DIR/SP/G                  HT/PER
                          (F)     (DEG/KT/KT) (MB)    (MI)  (FT/S)
HARRISON CRIB              56     360/ 15/ 18   N/A
BURNHAM HARBOR             61     330/ 13/ 15   N/A
CALUMET HARBOR             62     340/ 10/ 15   N/A
BURNS HARBOR               61      10/ 13/ 17 1015.6F
MICHIGAN CITY              62     350/ 16/ 18   N/A
MICHIGAN CITY 6N           62 64   10/ 14/ 19   N/A           4/ 4
ST. JOSEPH                 63 63                N/A           3/ 4
$$

ILZ025>027-034>036-040-047-049-050-058-095>099-022200-
WEST-CENTRAL ILLINOIS

CITY           SKY/WX    TMP DP  RH WIND       PRES   REMARKS
QUINCY         CLOUDY    70  59  68 NE7       29.94F
$$

ILZ028>032-037-038-041>044-048-051>054-059>061-022200-
CENTRAL ILLINOIS

CITY           SKY/WX    TMP DP  RH WIND       PRES   REMARKS
DECATUR        CLOUDY    75  60  59 NE8       29.92S
PEORIA         PTSUNNY   76  57  51 E10       29.94F
SPRINGFIELD    CLOUDY    74  61  63 NE8       29.93S
TAYLORVILLE    NOT AVBL
$$

ILZ033-039-045-046-055>057-062-063-022200-
EAST-CENTRAL ILLINOIS

CITY           SKY/WX    TMP DP  RH WIND       PRES   REMARKS
CHAMPAIGN      PTSUNNY   77  63  61 NE6       29.92F
MATTOON        CLOUDY    75  65  70 N12       29.89S
$$

ILZ079-100>102-022200-
SOUTHWEST ILLINOIS

CITY           SKY/WX    TMP DP  RH WIND       PRES   REMARKS
ALTON          PTSUNNY   77  70  78 NE12      29.89F
BELLEVILLE     PTSUNNY   77  69  76 E5        29.86F
CAHOKIA*       CLOUDY    77  66  68 NE7       29.87F
$$

ILZ064>066-069>071-074>076-080>082-084>086-088>090-092>094-022200-
SOUTH-CENTRAL ILLINOIS

CITY           SKY/WX    TMP DP  RH WIND       PRES   REMARKS
CARBONDALE     CLOUDY    77  69  76 N9        29.86S
MARION         PTSUNNY   77  72  83 N12       29.86F
MT. VERNON     CLOUDY    73  66  78 N5        29.87F
$$

ILZ067-068-072-073-078-083-087-091-022200-
SOUTHEAST ILLINOIS

CITY           SKY/WX    TMP DP  RH WIND       PRES   REMARKS
LAWRENCEVILLE  PTSUNNY   76  69  79 N6        29.86F
$$

ABBREVIATIONS USED IN REMARKS
   TC - TEMPERATURE IN CELSIUS
  WCI - WIND CHILL INDEX
   HX - HEAT INDEX
  VSB - VISIBILITY
$$



USA.gov is the U.S. government's official web portal to all federal, state and local government web resources and services.